Probability
0 0 0 0 0 0 0 0 0 0 0 0 0 0 0 0 0 0 0 0 0 0 0 0 0 0 0 0 0 0 0 0 0 0 0 0 0 0 0 0 0 0 0
0 0 0 0 0 0 0 0 0 0 0 0 0 0 0 0 0 0 0 0 0 0 0 0 0 0 0 0 0 0 0 0 0 0 0 0 0 0 0 0 0 0 0
0 0 0 0 0 0 0 0 0 0 0 0 0 0 0 0 0 0 0 0 0 0 0 0 0 0 0 0 0 0 0 0 0 0 0 0 0 0 0 0 0 0 0
0 0 0 0 0 0 0 0 0 0 0 0 0 0 0 0 0 0 0 0 0 0 0 0 0 0 0 0 0 0 0 0 0 0 0 0 0 0 0 0 0 0 0
0 0 0 0 0 0 0 0 0 0 0 0 0 0 0 0 0 0 0 0 0 0 0 0 0 0 0 0 0 0 0 0 0 0 0 0 0 0 0 0 0 0 0
0 0 0 0 0 0 0 0 0 0 0 0 0 0 0 0 0 0 0 0 0 0 0 0 0 0 0 0 0 0 0 0 0 0 0 0 0 0 0 0 0 0 0
0 0 0 0 0 0 0 0 0 0 0 0 0 0 0 0 0 0 0 0 0 0 0 0 0 0 0 0 0 0 0 0 0 0 0 0 0 0 0 0 0 0 0
0 0 0 0 0 0 0 0 0 0 0 0 0 0 0 0 0 0 0 0 0 0 0 0 0 0 0 0 0 0 0 0 0 0 0 0 0 0 0 0 0 0 0
0 0 0 0 0 0 0 0 0 0 0 0 0 0 0 0 0 0 0 0 0 0 0 0 0 0 0 0 0 0 0 0 0 0 0 0 0 0 0 0 0 0 0
0 0 0 0 0 0 0 0 0 0 0 0 0 0 0 0 0 0 0 0 0 0 0 0 0 0 0 0 0 0 0 0 0 0 0 0 0 0 0 0 0 0 0
0 0 0 0 0 0 0 0 0 0 0 0 0 0 0 0 0 0 0 0 0 0 0 0 0 0 0 0 0 0 0 0 0 0 0 0 0 0 0 0 0 0 0
0 0 0 0 0 0 0 0 0 0 0 0 0 0 0 0 0 0 0 0 0 0 0 0 0 0 0 0 0 0 0 0 0 0 0 0 0 0 0 0 0 0 0
0 0 0 0 0 0 0 0 0 0 0 0 0 0 0 0 0 0 0 0 0 0 0 0 0 0 0 0 0 0 0 0 0 0 0 0 0 0 0 0 0 0 0
0 0 0 0 0 0 0 0 0 0 0 0 0 0 0 0 0 0 0 0 0 0 0 0 0 0 0 0 0 0 0 0 0 0 0 0 0 0 0 0 0 0 0
0 0 0 0 0 0 0 0 0 0 0 0 0 0 0 0 0 0 0 0 0 0 0 0 0 0 0 0 0 0 0 0 0 0 0 0 0 0 0 0 0 0 0
0 0 0 0 0 0 0 0 0 0 0 0 0 0 0 0 0 0 0 0 0 0 0 0 0 0 0 0 0 0 0 0 0 0 0 0 0 0 0 0 0 0 0
0 0 0 0 0 0 0 0 0 0 0 0 0 0 0 0 0 0 0 0 0 0 0 0 0 0 0 0 0 0 0 0 0 0 0 0 0 0 0 0 0 0 0
0 0 0 0 0 0 0 0 0 0 0 0 0 0 0 0 0 0 0 0 0 0 0 0 0 0 0 0 0 0 0 0 0 0 0 0 0 0 0 0 0 0 0
0 0 0 0 0 0 0 0 0 0 0 0 0 0 0 0 0 0 0 0 0 0 0 0 0 0 0 0 0 0 0 0 0 0 0 0 0 0 0 0 0 0 0
0 0 0 0 0 0 0 0 0 0 0 0 0 0 0 0 0 0 0 0 0 0 0 0 0 0 0 0 0 0 0 0 0 0 0 0 0 0 0 0 0 0 0
0 0 0 0 0 0 0 0 0 0 0 0 0 0 0 0 0 0 0 0 0 0 0 0 0 0 0 0 0 0 0 0 0 0 0 0 0 0 0 0 0 0 0
0 0 0 0 0 0 0 0 0 0 0 0 0 0 0 0 0 0 0 0 0 0 0 0 0 0 0 0 0 0 0 0 0 0 0 0 0 0 0 0 0 0 0
0 0 0 0 0 0 0 0 0 0 0 0 0 0 0 0 0 0 0 0 0 0 0 0 0 0 0 0 0 0 0 0 0 0 0 0 0 0 0 0 0 0 0
0 0 0 0 0 0 0 0 0 0 0 0 0 0 0 0 0 0 0 0 0 0 0 0 0 0 0 0 0 0 0 0 0 0 0 0 0 0 0 0 0 0 0
0 0 0 0 0 0 0 0 0 0 0 0 0 0 0 0 0 0 0 0 0 0 0 0 0 0 0 0 0 0 0 0 0 0 0 0 0 0 0 0 0 0 0
0 0 0 0 0 0 0 0 0 0 0 0 0 0 0 0 0 0 0 0 0 0 0 0 0 0 0 0 0 0 0 0 0 0 0 0 0 0 0 0 0 0 0
Wind_Speed
13 14 16 17 16 14 11 10 10 12 12 11 12 12 13 12 12 12 14 17 16 17 15 11 12 12 12 12 13 9 10 6 7 6 5 4 4 5 4 4 4 5 5
15 19 19 19 19 17 15 10 8 8 11 10 10 9 10 10 11 9 12 15 16 17 15 16 13 14 12 14 14 12 8 6 8 5 5 5 5 5 4 4 4 4 4
18 20 21 21 20 20 19 13 10 6 8 9 6 4 5 4 7 10 10 12 15 16 16 17 15 15 14 14 16 15 15 9 9 6 6 6 7 6 6 6 4 4 3
18 19 19 20 21 20 18 18 14 8 4 6 7 9 8 8 8 7 8 11 14 15 15 16 16 16 14 15 15 15 12 12 10 7 5 4 3 6 7 6 6 5 4
17 18 19 18 20 21 20 19 17 13 7 4 7 8 9 7 5 5 8 10 11 14 15 15 15 15 14 15 16 16 15 11 11 9 6 5 3 3 5 6 7 6 5
17 18 18 20 22 22 21 20 19 18 13 8 6 7 9 9 8 7 7 8 8 10 15 15 15 15 14 16 16 16 19 15 14 10 8 7 7 6 5 5 5 6 5
17 19 21 22 22 22 21 20 21 21 18 14 10 8 9 10 11 9 8 9 8 9 14 15 16 15 15 16 15 16 17 17 15 13 10 8 7 5 6 5 5 5 4
16 17 18 18 17 18 18 19 20 19 19 18 15 11 10 8 8 9 9 9 8 9 11 15 16 17 16 15 15 13 14 14 14 15 12 8 7 7 7 7 7 6 5
14 15 15 15 15 16 16 16 16 16 16 17 17 16 14 11 11 11 10 9 9 8 10 13 16 17 17 16 16 13 15 14 15 14 13 10 8 7 6 6 7 8 8
11 12 11 12 12 12 13 14 15 15 15 15 14 12 15 14 12 11 11 11 11 10 10 12 14 16 16 17 17 15 16 16 15 12 14 13 9 8 7 7 6 6 6
9 9 9 9 10 11 12 14 14 15 15 14 13 13 13 14 14 12 12 11 11 10 11 12 13 15 16 17 17 18 17 18 17 15 16 15 13 10 9 8 8 7 6
8 8 8 9 10 11 12 12 13 13 14 13 12 12 12 12 13 13 13 12 12 11 11 12 13 14 15 17 18 19 17 19 20 19 18 18 12 14 12 11 12 10 9
6 8 8 9 10 11 10 11 11 11 12 12 12 12 13 13 14 13 13 12 12 11 11 12 13 14 16 17 19 19 19 20 21 21 22 20 17 17 13 14 13 11 9
5 7 7 8 9 10 11 11 11 11 10 10 10 11 11 12 13 14 14 14 13 12 11 12 14 15 16 17 18 19 19 20 20 20 20 21 22 21 18 15 15 12 12
6 7 7 7 8 9 10 11 12 11 11 11 11 10 10 11 11 12 13 13 13 12 11 12 12 14 14 14 16 17 18 19 21 21 21 21 22 23 20 16 16 16 13
8 9 9 9 8 9 10 10 11 11 12 12 12 12 11 10 10 11 12 12 12 13 12 12 12 14 13 18 24 21 18 19 21 22 21 20 20 23 29 28 26 25 21
10 11 11 11 9 10 10 11 11 11 10 11 11 10 11 12 12 13 13 13 13 13 13 13 13 14 17 24 26 26 19 19 21 22 20 17 17 21 21 26 29 27 27
10 11 12 13 12 12 11 11 11 11 12 12 11 11 12 13 14 15 15 15 14 14 14 14 15 16 17 22 25 24 21 21 22 22 21 20 20 21 23 21 20 20 21
10 10 10 12 13 13 13 12 12 13 13 14 14 13 12 13 15 16 18 17 16 16 15 14 15 16 17 21 23 25 15 17 21 20 20 21 22 27 32 23 21 20 17
9 9 10 12 13 14 13 13 15 15 16 16 16 15 14 13 15 18 19 18 17 18 18 17 16 17 17 20 23 23 14 16 16 16 18 21 25 27 34 25 22 22 19
9 9 11 12 13 14 13 16 17 17 16 16 16 17 17 16 18 19 18 19 19 20 20 20 19 17 18 21 24 24 15 16 15 14 15 16 28 30 33 30 19 21 18
10 11 11 14 15 14 14 18 20 19 17 17 18 19 18 18 17 19 19 19 19 20 21 20 21 17 15 17 20 25 26 24 17 15 13 14 26 31 32 29 24 27 21
10 11 12 15 16 14 14 18 20 19 19 19 20 20 21 19 18 19 20 18 17 17 17 17 17 16 13 14 22 24 27 29 21 14 19 21 25 28 26 31 30 22 16
10 10 12 15 17 16 15 16 18 19 19 21 22 20 20 20 18 16 16 16 16 16 17 17 17 15 13 12 10 11 13 19 21 16 16 23 24 22 20 19 23 16 14
10 10 12 15 18 18 17 17 17 18 21 22 21 20 19 19 18 17 16 18 17 18 20 17 17 16 16 15 16 12 11 11 13 12 12 12 12 15 15 15 15 14 13
11 12 14 16 18 18 19 18 16 17 20 20 19 17 16 16 16 17 18 25 28 33 37 37 33 24 28 29 25 23 24 25 22 15 13 13 14 15 16 16 16 14 14
Wind_Direction
337 354 358 353 344 338 322 285 246 221 206 203 209 212 213 211 212 211 207 202 194 189 189 183 178 179 179 179 176 165 160 152 152 137 129 131 148 165 148 126 108 103 93
8 13 12 12 8 4 355 334 283 240 215 211 210 215 218 219 217 214 215 210 201 193 192 186 183 185 183 181 181 174 168 156 182 169 154 167 177 184 176 152 120 112 113
23 20 19 17 14 12 6 359 339 285 234 223 220 217 222 238 217 215 215 216 213 205 201 193 186 187 187 187 188 185 176 172 185 208 194 180 181 160 174 183 167 147 138
32 30 25 22 20 17 17 17 11 354 295 237 223 219 221 230 230 224 218 215 220 220 214 205 196 191 192 192 190 191 190 181 179 191 230 250 173 165 160 176 187 182 162
35 33 30 27 27 26 26 23 23 19 359 287 252 244 246 255 266 250 232 217 213 222 222 217 208 199 198 195 189 189 193 196 190 182 176 185 192 205 161 162 171 181 175
36 33 30 30 30 29 31 30 30 26 13 348 303 272 269 271 267 254 241 222 211 214 220 220 216 208 204 199 194 193 196 200 201 195 184 174 176 187 177 153 158 170 162
32 29 29 28 27 25 27 30 33 30 21 10 349 319 296 286 278 271 254 235 219 213 215 215 217 214 212 207 200 199 202 203 202 200 199 196 187 170 173 159 142 155 152
31 31 30 30 29 27 25 28 31 30 25 20 9 352 329 307 295 286 275 258 242 229 221 217 222 221 216 211 207 207 207 206 207 207 203 196 185 177 171 162 151 153 162
32 29 26 25 24 25 25 27 30 30 28 26 22 13 0 340 318 304 289 277 263 252 238 224 225 227 219 212 206 209 207 207 209 209 206 203 191 185 178 170 169 165 175
30 26 20 18 17 17 17 20 25 26 24 24 25 21 15 4 345 325 304 290 279 265 249 236 229 229 226 218 211 212 208 208 210 207 206 207 196 185 179 182 182 188 188
21 18 14 10 10 12 13 14 15 16 15 14 14 15 15 12 6 353 334 315 297 278 259 245 233 229 227 224 222 219 208 207 208 207 208 209 198 190 184 184 183 183 181
7 4 6 4 4 6 7 6 6 9 5 2 2 5 6 7 7 2 352 336 316 295 270 255 244 235 231 228 227 226 218 209 207 205 207 210 199 200 191 188 188 183 184
358 353 355 357 356 355 356 356 357 1 358 354 354 356 358 358 357 353 350 346 332 311 287 263 251 242 236 232 230 231 226 220 216 207 205 204 197 203 197 193 189 180 177
355 350 341 343 344 343 345 346 347 351 350 346 347 351 351 349 346 343 343 342 337 324 302 275 259 250 243 238 234 233 232 227 224 219 212 205 200 201 197 197 192 177 177
336 336 329 324 326 331 332 335 334 337 338 335 336 339 338 339 337 337 336 333 330 325 314 292 269 257 250 243 238 235 234 232 228 224 219 214 208 204 198 197 192 181 179
326 327 325 318 316 323 323 321 320 324 326 324 324 325 327 328 329 329 326 323 322 321 317 302 282 267 256 249 242 237 234 233 232 228 222 216 210 208 206 205 198 191 184
316 322 324 321 315 317 318 310 311 311 307 306 309 312 318 322 324 322 319 315 315 313 309 303 292 277 265 258 251 241 235 235 234 231 225 216 210 204 206 209 205 203 203
304 318 322 319 318 315 310 305 304 302 298 298 300 304 310 313 315 314 310 307 306 302 299 295 290 282 272 264 259 251 239 237 236 233 229 221 213 205 202 200 202 203 204
294 310 316 315 313 312 313 307 301 298 295 295 296 298 302 304 306 305 302 302 299 294 288 284 281 277 274 267 262 257 248 241 236 233 230 225 218 209 203 198 199 199 202
288 309 314 311 308 311 315 306 300 298 296 296 295 295 295 293 294 295 295 294 291 286 285 280 275 272 270 265 259 255 250 247 238 227 225 225 220 211 204 201 197 196 192
292 304 305 303 304 313 316 305 301 300 302 301 297 294 292 291 290 290 287 287 285 284 280 277 274 268 264 262 256 249 243 248 242 229 220 219 220 215 209 205 204 202 184
301 309 309 306 308 315 315 305 301 305 308 304 297 294 293 291 288 286 284 282 280 277 274 272 270 265 258 252 251 246 243 244 243 234 220 213 212 212 209 208 203 200 184
314 320 316 307 305 311 311 302 303 310 308 302 298 296 295 290 286 283 281 280 276 271 270 267 266 265 258 252 248 244 243 243 242 234 217 207 207 209 209 210 200 194 186
321 321 315 306 303 308 308 303 305 307 304 300 299 298 296 293 288 283 279 276 273 271 271 268 266 265 259 251 243 238 239 240 243 230 208 201 202 204 202 205 199 193 189
319 316 308 301 300 304 303 303 303 303 299 297 296 295 292 289 287 281 274 275 268 267 272 273 272 270 264 255 244 236 235 231 229 196 180 182 185 198 198 196 190 185 179
315 308 302 298 298 301 300 302 303 301 299 297 296 293 291 288 285 283 280 275 274 276 273 270 267 267 264 265 262 251 242 243 234 194 182 183 186 195 195 189 180 176 173